{"data":{"norad_id":48325,"epoch":"2026-05-25T03:49:12.103968Z","epoch_age_seconds":51457,"freshness":"FRESH","line1":"1 48325U 21036BB  26145.15916787  .00000518  00000+0  28450-4 0  9992","line2":"2 48325  53.1607 105.5112 0001346  85.3694 274.7461 15.31704242279750","mean_motion":15.31704242,"eccentricity":0.0001346,"inclination_deg":53.1607,"raan_deg":105.5112,"arg_perigee_deg":85.3694,"mean_anomaly_deg":274.7461,"bstar":2.845e-5,"rev_number":27975,"period_min":94.012927594934,"perigee_km":469.80549293205,"apogee_km":471.64920721509,"semimajor_km":6848.8643500736,"source":"CELESTRAK","updated_at":"2026-05-25T13:38:16.681984Z"}}